Disclaimer

Please do not use the information listed here in-flight or in-navigation, as they are not provided to us by the airports but are provided by volunteers, so they might be outdated.

Search


Regions


Airport information page

Radio informations:
RONNE TWR - 118.325 MHz
HANDLING - 131.55 MHz

Airport informations:
Latitude: 55° 03' 47.76" N
Longitude: 014° 45' 34.41" E
Elevation: 52 feet - 16 meters
Operating hours: Remarks
Operating agency: Civil government, landing fees and diplomatic clearance may be required
Timezone: UTC+1(+2DT) - Last Sunday in March to last Sunday in October
Fuel: Jet A1, without icing nhibitor.

100/130 MIL Spec, low lead, aviation gasoline (BLUE)

Runway information:
11/29 - 6568 x 148 feet< - >2002 x 45 meters

Recent METARs:
EKRN 212150Z AUTO 23011KT 5000 OVC005/// 02/01 Q1013 R99/650238
EKRN 212220Z AUTO 23011KT 5000 OVC005/// 02/01 Q1013 R11/CLRD//
EKRN 212250Z AUTO 24010KT 9999 OVC006/// 02/01 Q1012

Airport on the map: